Louisa, VA

10:03 AM EST on February 26, 2017 (GMT -0500)
Louisa County-Freeman

Weather History for KLKU - March, 2013

Change the Weather History Date:

Friday, March 1, 2013

  Actual Average (KOMH) Record (KOMH)
Temperature  
Mean Temperature 36 °F -  
Max Temperature 44 °F 51 °F 77 °F (1972)
Min Temperature 28 °F 27 °F 10 °F (1980)
Degree Days  
Heating Degree Days 29    
Moisture  
Dew Point 25 °F    
Average Humidity 60    
Maximum Humidity 93    
Minimum Humidity 46    
Precipitation  
Precipitation 0.00 in - - ()
Sea Level Pressure  
Sea Level Pressure 29.82 in    
Wind  
Wind Speed 5 mph (WNW)    
Max Wind Speed 13 mph    
Max Gust Speed 17 mph    
Visibility 10 miles    
Events      
Averages and records for this station are not official NWS values.
T = Trace of Precipitation, MM = Missing Value Source: NWS Daily Summary

Daily Weather History Graph

Daily Weather History Graph

Search for Another Location

Airport or City:

Trip Planner

Search our weather history database for the weather conditions in past years. The results will help you decide how hot, cold, wet, or windy it might be!

Date:

Astronomy

Mar. 01, 2013 Rise Set
Actual Time 6:43 AM EST 6:05 PM EST
Civil Twilight 6:16 AM EST 6:32 PM EST
Nautical Twilight 5:46 AM EST 7:02 PM EST
Astronomical Twilight 5:15 AM EST 7:33 PM EST
Moon 10:31 PM EST (3/1) 8:33 AM EST (3/1)
Length of Visible Light 12h 15m
Length of Day
11h 22m
Waning Gibbous, 83% of the Moon is Illuminated
Mar 1
Waning Gibbous
Mar 4
Last Quarter
Mar 11
New
Mar 19
First Quarter
Mar 27
Full

Hourly Weather History & Observations

Time (EST) Temp. Windchill Dew Point Humidity Pressure Visibility Wind Dir Wind Speed Gust Speed Precip Events Conditions
12:15 AM 39.2 °F 35.9 °F 26.6 °F 61% 29.74 in 10.0 mi WSW 4.6 mph - N/A   Overcast
12:35 AM 39.2 °F 33.6 °F 26.6 °F 61% 29.74 in 10.0 mi West 8.1 mph - N/A   Overcast
12:55 AM 39.2 °F 37.0 °F 26.6 °F 61% 29.76 in 10.0 mi SW 3.5 mph - N/A   Overcast
1:15 AM 39.2 °F 37.0 °F 26.6 °F 61% 29.76 in 10.0 mi SSW 3.5 mph - N/A   Overcast
1:35 AM 37.4 °F 34.9 °F 26.6 °F 65% 29.75 in 10.0 mi WSW 3.5 mph - N/A   Overcast
1:55 AM 35.6 °F 31.7 °F 26.6 °F 70% 29.75 in 10.0 mi WSW 4.6 mph - N/A   Scattered Clouds
2:15 AM 35.6 °F 32.8 °F 26.6 °F 70% 29.76 in 10.0 mi SW 3.5 mph - N/A   Mostly Cloudy
2:35 AM 33.8 °F 27.7 °F 26.6 °F 75% 29.76 in 10.0 mi West 6.9 mph - N/A   Mostly Cloudy
2:55 AM 35.6 °F 32.8 °F 26.6 °F 70% 29.76 in 10.0 mi SW 3.5 mph - N/A   Mostly Cloudy
3:15 AM 35.6 °F 32.8 °F 26.6 °F 70% 29.75 in 10.0 mi West 3.5 mph - N/A   Overcast
3:35 AM 35.6 °F 32.8 °F 26.6 °F 70% 29.76 in 10.0 mi SW 3.5 mph - N/A   Overcast
3:55 AM 35.6 °F - 26.6 °F 70% 29.76 in 10.0 mi Calm Calm - N/A   Overcast
4:35 AM 35.6 °F - 26.6 °F 70% 29.77 in 10.0 mi Calm Calm - N/A   Scattered Clouds
4:55 AM 30.2 °F 26.7 °F 26.6 °F 86% 29.77 in 10.0 mi West 3.5 mph - N/A   Scattered Clouds
5:15 AM 28.4 °F - 26.6 °F 93% 29.78 in 10.0 mi Calm Calm - N/A   Scattered Clouds
5:35 AM 28.4 °F - 24.8 °F 86% 29.78 in 10.0 mi Calm Calm - N/A   Clear
5:55 AM 28.4 °F - 24.8 °F 86% 29.78 in 10.0 mi Calm Calm - N/A   Clear
6:15 AM 28.4 °F - 24.8 °F 86% 29.79 in 10.0 mi Calm Calm - N/A   Scattered Clouds
6:35 AM 28.4 °F 23.3 °F 24.8 °F 86% 29.78 in 10.0 mi WSW 4.6 mph - N/A   Mostly Cloudy
6:55 AM 30.2 °F 26.7 °F 26.6 °F 86% 29.79 in 10.0 mi SW 3.5 mph - N/A   Overcast
7:15 AM 32.0 °F 28.7 °F 26.6 °F 80% 29.80 in 10.0 mi SW 3.5 mph - N/A   Overcast
7:35 AM 33.8 °F 29.6 °F 26.6 °F 75% 29.82 in 10.0 mi WSW 4.6 mph - N/A   Overcast
7:55 AM 35.6 °F 31.7 °F 26.6 °F 70% 29.82 in 10.0 mi West 4.6 mph - N/A   Overcast
8:15 AM 37.4 °F 32.1 °F 26.6 °F 65% 29.83 in 10.0 mi West 6.9 mph - N/A   Overcast
8:35 AM 39.2 °F 33.0 °F 26.6 °F 61% 29.83 in 10.0 mi NW 9.2 mph - N/A   Overcast
8:55 AM 41.0 °F 38.0 °F 24.8 °F 53% 29.82 in 10.0 mi NW 4.6 mph - N/A   Overcast
9:15 AM 41.0 °F 38.0 °F 26.6 °F 57% 29.83 in 10.0 mi WNW 4.6 mph - N/A   Overcast
9:35 AM 41.0 °F 37.1 °F 26.6 °F 57% 29.83 in 10.0 mi NW 5.8 mph - N/A   Overcast
10:15 AM 42.8 °F 40.1 °F 26.6 °F 53% 29.83 in 10.0 mi NNW 4.6 mph - N/A   Overcast
10:35 AM 42.8 °F 38.0 °F 26.6 °F 53% 29.84 in 10.0 mi NW 8.1 mph - N/A   Overcast
11:15 AM 42.8 °F 38.6 °F 26.6 °F 53% 29.84 in 10.0 mi NNW 6.9 mph - N/A   Overcast
11:35 AM 42.8 °F 37.5 °F 26.6 °F 53% 29.84 in 10.0 mi NW 9.2 mph - N/A   Overcast
11:55 AM 42.8 °F 39.3 °F 26.6 °F 53% 29.84 in 10.0 mi North 5.8 mph - N/A   Overcast
12:15 PM 44.6 °F 40.7 °F 28.4 °F 53% 29.83 in 10.0 mi NW 6.9 mph - N/A   Overcast
12:35 PM 44.6 °F 40.2 °F 26.6 °F 49% 29.83 in 10.0 mi NW 8.1 mph - N/A   Overcast
1:15 PM 42.8 °F 37.5 °F 24.8 °F 49% 29.82 in 10.0 mi NNW 9.2 mph - N/A   Overcast
1:35 PM 44.6 °F 40.7 °F 24.8 °F 46% 29.81 in 10.0 mi NNW 6.9 mph - N/A   Overcast
2:15 PM 42.8 °F 38.0 °F 24.8 °F 49% 29.81 in 10.0 mi NW 8.1 mph - N/A   Overcast
2:35 PM 42.8 °F 38.6 °F 24.8 °F 49% 29.81 in 10.0 mi NW 6.9 mph - N/A   Overcast
2:55 PM 42.8 °F 36.6 °F 24.8 °F 49% 29.80 in 10.0 mi NW 11.5 mph - N/A   Overcast
3:15 PM 42.8 °F 36.2 °F 24.8 °F 49% 29.80 in 10.0 mi WNW 12.7 mph 16.1 mph N/A   Overcast
3:35 PM 42.8 °F 38.6 °F 24.8 °F 49% 29.80 in 10.0 mi WNW 6.9 mph - N/A   Overcast
3:55 PM 42.8 °F 37.5 °F 24.8 °F 49% 29.81 in 10.0 mi NNW 9.2 mph - N/A   Overcast
4:15 PM 42.8 °F 37.5 °F 24.8 °F 49% 29.82 in 10.0 mi NW 9.2 mph - N/A   Overcast
4:35 PM 42.8 °F 37.0 °F 24.8 °F 49% 29.82 in 10.0 mi NW 10.4 mph - N/A   Overcast
4:55 PM 41.0 °F 34.3 °F 24.8 °F 53% 29.83 in 10.0 mi NW 11.5 mph 17.3 mph N/A   Overcast
5:15 PM 41.0 °F 35.8 °F 24.8 °F 53% 29.83 in 10.0 mi NW 8.1 mph 16.1 mph N/A   Overcast
5:35 PM 41.0 °F 35.8 °F 24.8 °F 53% 29.83 in 10.0 mi NW 8.1 mph - N/A   Overcast
5:55 PM 39.2 °F 33.0 °F 23.0 °F 52% 29.83 in 10.0 mi NNW 9.2 mph - N/A   Overcast
6:15 PM 39.2 °F 33.6 °F 23.0 °F 52% 29.84 in 10.0 mi NW 8.1 mph - N/A   Overcast
6:35 PM 39.2 °F 33.0 °F 21.2 °F 49% 29.84 in 10.0 mi NW 9.2 mph - N/A   Overcast
6:55 PM 39.2 °F 34.2 °F 23.0 °F 52% 29.85 in 10.0 mi WNW 6.9 mph - N/A   Overcast
7:15 PM 39.2 °F 34.2 °F 21.2 °F 49% 29.86 in 10.0 mi WNW 6.9 mph - N/A   Overcast
7:35 PM 39.2 °F 35.9 °F 21.2 °F 49% 29.87 in 10.0 mi NW 4.6 mph - N/A   Overcast
7:55 PM 39.2 °F 35.0 °F 21.2 °F 49% 29.87 in 10.0 mi WNW 5.8 mph - N/A   Overcast
8:15 PM 39.2 °F 35.9 °F 21.2 °F 49% 29.87 in 10.0 mi WNW 4.6 mph - N/A   Overcast
8:35 PM 37.4 °F 32.8 °F 21.2 °F 52% 29.88 in 10.0 mi WNW 5.8 mph - N/A   Overcast
8:55 PM 37.4 °F 30.3 °F 21.2 °F 52% 29.87 in 10.0 mi WNW 10.4 mph - N/A   Overcast
9:15 PM 37.4 °F 32.1 °F 21.2 °F 52% 29.88 in 10.0 mi NW 6.9 mph - N/A   Overcast
9:35 PM 37.4 °F 33.8 °F 21.2 °F 52% 29.88 in 10.0 mi NW 4.6 mph - N/A   Overcast
9:55 PM 37.4 °F 34.9 °F 21.2 °F 52% 29.88 in 10.0 mi NW 3.5 mph - N/A   Overcast
10:15 PM 37.4 °F 32.8 °F 21.2 °F 52% 29.88 in 10.0 mi NW 5.8 mph - N/A   Overcast
10:55 PM 37.4 °F 33.8 °F 21.2 °F 52% 29.88 in 10.0 mi NW 4.6 mph - N/A   Overcast
11:15 PM 37.4 °F 33.8 °F 21.2 °F 52% 29.88 in 10.0 mi NW 4.6 mph - N/A   Overcast
11:35 PM 37.4 °F 32.1 °F 21.2 °F 52% 29.87 in 10.0 mi NW 6.9 mph - N/A   Overcast
11:55 PM 37.4 °F 32.1 °F 19.4 °F 48% 29.88 in 10.0 mi NW 6.9 mph - N/A   Overcast